Marble, NC

2:05 PM EST on March 01, 2017 (GMT -0500)
Andrews

Weather History for KRHP - September, 2014

Change the Weather History Date:

Thursday, September 4, 2014

  Actual Average (KMMI) Record (KMMI)
Temperature  
Mean Temperature 74 °F -  
Max Temperature 81 °F 85 °F 89 °F (2015)
Min Temperature 66 °F 62 °F 60 °F (2016)
Cooling Degree Days 8    
Growing Degree Days 24 (Base 50)    
Moisture  
Dew Point 69 °F    
Average Humidity 90    
Maximum Humidity 100    
Minimum Humidity 67    
Precipitation  
Precipitation 0.02 in - - ()
Sea Level Pressure  
Sea Level Pressure 30.18 in    
Wind  
Wind Speed 2 mph (West)    
Max Wind Speed 9 mph    
Max Gust Speed -    
Visibility 10 miles    
Events Rain    
Averages and records for this station are not official NWS values.
T = Trace of Precipitation, MM = Missing Value Source: NWS Daily Summary

Daily Weather History Graph

Daily Weather History Graph

Search for Another Location

Airport or City:

Trip Planner

Search our weather history database for the weather conditions in past years. The results will help you decide how hot, cold, wet, or windy it might be!

Date:

Astronomy

Sep. 04, 2014 Rise Set
Actual Time 7:10 AM EDT 7:58 PM EDT
Civil Twilight 6:44 AM EDT 8:23 PM EDT
Nautical Twilight 6:13 AM EDT 8:54 PM EDT
Astronomical Twilight 5:42 AM EDT 9:25 PM EDT
Moon 4:28 PM EDT (9/4) 2:07 AM EDT (9/4)
Length of Visible Light 13h 39m
Length of Day
12h 47m
Waxing Gibbous, 74% of the Moon is Illuminated
Sep 4
Waxing Gibbous
Sep 8
Full
Sep 15
Last Quarter
Sep 24
New
Oct 1
First Quarter

Hourly Weather History & Observations

Time (EDT) Temp. Heat Index Dew Point Humidity Pressure Visibility Wind Dir Wind Speed Gust Speed Precip Events Conditions
12:15 AM 69.3 °F - 69.1 °F 99% 30.16 in 10.0 mi Calm Calm - N/A   Mostly Cloudy
12:35 AM 69.3 °F - 68.9 °F 99% 30.16 in 10.0 mi ENE 3.5 mph - N/A   Scattered Clouds
12:55 AM 69.1 °F - 68.9 °F 99% 30.15 in 10.0 mi Calm Calm - N/A   Clear
1:15 AM 69.1 °F - 68.7 °F 99% 30.15 in 10.0 mi Calm Calm - N/A   Clear
1:35 AM 69.1 °F - 68.7 °F 99% 30.15 in 10.0 mi Calm Calm - N/A   Mostly Cloudy
1:55 AM 68.9 °F - 68.7 °F 99% 30.16 in 10.0 mi Calm Calm - N/A   Overcast
2:15 AM 68.7 °F - 68.5 °F 99% 30.16 in 10.0 mi Calm Calm - N/A   Overcast
2:35 AM 68.2 °F - 68.0 °F 99% 30.15 in 10.0 mi Calm Calm - N/A   Scattered Clouds
2:55 AM 68.2 °F - 68.0 °F 99% 30.16 in 10.0 mi Calm Calm - N/A   Clear
3:15 AM 68.2 °F - 68.0 °F 99% 30.15 in 10.0 mi Calm Calm - N/A   Scattered Clouds
3:35 AM 68.2 °F - 68.0 °F 99% 30.15 in 10.0 mi Calm Calm - N/A   Mostly Cloudy
3:55 AM 68.0 °F - 67.6 °F 99% 30.15 in 10.0 mi Calm Calm - N/A   Mostly Cloudy
4:15 AM 68.0 °F - 67.6 °F 99% 30.15 in 10.0 mi Calm Calm - N/A   Overcast
4:35 AM 67.3 °F - 67.1 °F 99% 30.15 in 10.0 mi Calm Calm - N/A   Scattered Clouds
4:55 AM 66.6 °F - 66.6 °F 100% 30.15 in 10.0 mi Calm Calm - 0.01 in   Clear
5:15 AM 66.2 °F - 66.2 °F 100% 30.15 in 10.0 mi Calm Calm - N/A   Clear
5:35 AM 66.4 °F - 66.4 °F 100% 30.15 in 10.0 mi Calm Calm - N/A   Mostly Cloudy
5:55 AM 66.7 °F - 66.6 °F 99% 30.15 in 10.0 mi Calm Calm - N/A   Overcast
6:15 AM 66.4 °F - 66.2 °F 99% 30.16 in 10.0 mi Calm Calm - N/A   Scattered Clouds
6:35 AM 66.7 °F - 66.4 °F 99% 30.16 in 10.0 mi Calm Calm - N/A   Clear
6:55 AM 66.6 °F - 66.4 °F 99% 30.16 in 10.0 mi Calm Calm - N/A   Clear
7:15 AM 66.6 °F - 66.6 °F 100% 30.17 in 10.0 mi Calm Calm - N/A   Scattered Clouds
7:35 AM 66.4 °F - 66.2 °F 99% 30.17 in 10.0 mi Calm Calm - N/A   Scattered Clouds
7:55 AM 67.1 °F - 66.6 °F 98% 30.18 in 10.0 mi Calm Calm - N/A   Scattered Clouds
8:15 AM 67.1 °F - 66.7 °F 99% 30.18 in 10.0 mi Calm Calm - N/A   Scattered Clouds
8:35 AM 67.5 °F - 66.7 °F 98% 30.19 in 10.0 mi Calm Calm - N/A   Scattered Clouds
8:55 AM 68.0 °F - 67.3 °F 98% 30.19 in 10.0 mi Calm Calm - N/A   Scattered Clouds
9:15 AM 69.3 °F - 68.0 °F 96% 30.20 in 10.0 mi Calm Calm - N/A   Scattered Clouds
9:35 AM 69.8 °F - 67.6 °F 93% 30.20 in 10.0 mi Calm Calm - N/A   Clear
9:55 AM 70.3 °F - 68.2 °F 93% 30.20 in 10.0 mi Calm Calm - N/A   Clear
10:15 AM 70.9 °F - 68.7 °F 93% 30.21 in 10.0 mi West 3.5 mph - N/A   Clear
10:35 AM 71.6 °F - 68.9 °F 91% 30.21 in 10.0 mi WSW 3.5 mph - N/A   Clear
10:55 AM 72.7 °F - 68.9 °F 88% 30.22 in 10.0 mi WSW 3.5 mph - N/A   Clear
11:15 AM 75.7 °F - 69.6 °F 81% 30.22 in 10.0 mi WSW 3.5 mph - N/A   Scattered Clouds
11:35 AM 78.1 °F - 69.3 °F 74% 30.21 in 10.0 mi West 5.8 mph - N/A   Mostly Cloudy
12:15 PM 79.5 °F - 70.5 °F 74% 30.21 in 10.0 mi West 5.8 mph - N/A   Scattered Clouds
12:35 PM 77.4 °F - 70.0 °F 78% 30.21 in 10.0 mi WNW 5.8 mph - N/A   Mostly Cloudy
12:55 PM 77.4 °F - 69.6 °F 77% 30.21 in 10.0 mi NW 3.5 mph - N/A   Overcast
1:15 PM 77.7 °F - 70.3 °F 78% 30.21 in 10.0 mi West 5.8 mph - N/A   Overcast
1:35 PM 78.6 °F - 70.9 °F 77% 30.20 in 10.0 mi West 9.2 mph - N/A   Mostly Cloudy
1:55 PM 78.8 °F - 70.3 °F 75% 30.20 in 10.0 mi West 6.9 mph - N/A   Scattered Clouds
2:15 PM 77.9 °F - 68.9 °F 74% 30.19 in 10.0 mi West 3.5 mph - N/A   Mostly Cloudy
2:35 PM 81.7 °F 85.4 °F 70.3 °F 68% 30.19 in 10.0 mi WSW 6.9 mph - N/A   Mostly Cloudy
2:55 PM 79.0 °F - 70.2 °F 74% 30.18 in 10.0 mi West 6.9 mph - N/A   Overcast
3:15 PM 81.3 °F 85.4 °F 71.2 °F 71% 30.17 in 10.0 mi West 6.9 mph - N/A   Mostly Cloudy
3:35 PM 80.8 °F 84.2 °F 70.2 °F 70% 30.16 in 10.0 mi WNW 6.9 mph - N/A   Scattered Clouds
3:55 PM 80.2 °F 83.6 °F 70.5 °F 72% 30.15 in 10.0 mi West 6.9 mph - N/A   Mostly Cloudy
4:15 PM 79.3 °F - 70.3 °F 74% 30.15 in 10.0 mi West 9.2 mph - N/A   Scattered Clouds
4:35 PM 80.6 °F 84.4 °F 71.2 °F 73% 30.15 in 10.0 mi West 9.2 mph - N/A   Clear
4:55 PM 79.5 °F - 70.9 °F 75% 30.15 in 10.0 mi West 8.1 mph - N/A   Clear
5:15 PM 79.0 °F - 70.0 °F 74% 30.15 in 10.0 mi WSW 5.8 mph - N/A   Clear
5:35 PM 80.2 °F 83.7 °F 70.7 °F 73% 30.15 in 10.0 mi West 4.6 mph - N/A   Clear
5:55 PM 80.4 °F 83.9 °F 70.5 °F 72% 30.15 in 10.0 mi WNW 3.5 mph - N/A   Scattered Clouds
6:15 PM 81.0 °F 84.1 °F 69.3 °F 67% 30.16 in 10.0 mi Calm Calm - N/A   Scattered Clouds
6:35 PM 79.5 °F - 69.3 °F 71% 30.16 in 10.0 mi East 4.6 mph - N/A   Scattered Clouds
6:55 PM 77.0 °F - 68.5 °F 75% 30.17 in 10.0 mi East 4.6 mph - N/A Rain Light Rain
7:15 PM 73.6 °F - 69.4 °F 87% 30.18 in 10.0 mi Calm Calm - N/A   Light Drizzle
7:35 PM 72.7 °F - 70.5 °F 93% 30.18 in 10.0 mi WSW 6.9 mph - N/A Rain Light Rain
7:55 PM 71.6 °F - 70.2 °F 95% 30.19 in 10.0 mi Calm Calm - 0.01 in   Drizzle
8:15 PM 71.2 °F - 70.7 °F 98% 30.20 in 10.0 mi Calm Calm - N/A   Light Drizzle
8:35 PM 71.1 °F - 70.7 °F 99% 30.20 in 10.0 mi Calm Calm - N/A   Overcast
8:50 PM 70.7 °F - 70.3 °F 99% 30.21 in 10.0 mi Calm Calm - N/A   Overcast
9:15 PM 71.1 °F - 70.7 °F 99% 30.21 in 10.0 mi Calm Calm - N/A   Overcast
9:35 PM 70.7 °F - 70.3 °F 99% 30.21 in 10.0 mi NE 3.5 mph - N/A   Mostly Cloudy
9:55 PM 70.9 °F - 70.0 °F 97% 30.22 in 10.0 mi Calm Calm - N/A   Mostly Cloudy
10:15 PM 70.7 °F - 70.2 °F 98% 30.22 in 10.0 mi Calm Calm - N/A   Overcast
10:35 PM 70.3 °F - 70.2 °F 99% 30.22 in 7.0 mi Calm Calm - N/A   Overcast
10:55 PM 70.2 °F - 69.8 °F 99% 30.22 in 10.0 mi Calm Calm - N/A   Mostly Cloudy
11:15 PM 69.8 °F - 69.8 °F 100% 30.22 in 10.0 mi Calm Calm - N/A   Scattered Clouds
11:35 PM 69.8 °F - 69.4 °F 99% 30.22 in 7.0 mi Calm Calm - N/A   Clear
11:55 PM 69.3 °F - 69.1 °F 99% 30.22 in 10.0 mi Calm Calm - N/A   Clear